Climatologie pour Saint-Brevin les Pins
Jour • Résumé pour février 2, 2017 Système :  Métrique    Anglais   Mixte
« - 1 jour
+ 1 jour »
Jour Semaine Mois Année Personnalisé
  Maximum : Minimum : Moyenne :
Température sous abri : 12.1 °C 8.6 °C 10.5 °C
Point de rosée : 10.7 °C 6.8 °C 9 °C
Humidité : 95 % 83 % 91 %
Vitesse du vent : 40.2 km/h 0.0 km/h 16.5 km/h
Rafale : 49.9 km/h - -
Direction :- - SSW
Pression : 1005.6 hPa 997.2 hPa -
Précipitations : 4.3 mm    
Historical Graphs
 
 
Tableau de données pour février 2, 2017
Heure Tempé Pt rosée Pression Vent Vitesse Rafale Humidité Taux pluie (/hr) Soleil
00:00 10.7 °C 8.9 °C 1005.6 hPa South 12.9 km/h 19.3 km/h 89 % 0.0 mm 0 W/m2
00:05 10.7 °C 8.9 °C 1005.3 hPa South 12.9 km/h 22.5 km/h 89 % 0.0 mm 0 W/m2
00:10 10.7 °C 8.9 °C 1005.3 hPa SSE 6.4 km/h 24.1 km/h 89 % 0.0 mm 0 W/m2
00:15 10.6 °C 8.9 °C 1005.3 hPa South 12.9 km/h 25.7 km/h 89 % 0.0 mm 0 W/m2
00:20 10.7 °C 8.8 °C 1005.3 hPa ESE 27.4 km/h 27.4 km/h 88 % 0.0 mm 0 W/m2
00:25 10.6 °C 8.5 °C 1005.0 hPa South 9.7 km/h 27.4 km/h 87 % 0.0 mm 0 W/m2
00:30 10.6 °C 8.5 °C 1005.0 hPa SE 17.7 km/h 25.7 km/h 87 % 0.0 mm 0 W/m2
00:35 10.6 °C 8.5 °C 1005.0 hPa SSE 16.1 km/h 24.1 km/h 87 % 0.0 mm 0 W/m2
00:40 10.6 °C 8.3 °C 1005.0 hPa South 9.7 km/h 19.3 km/h 86 % 0.0 mm 0 W/m2
00:45 10.5 °C 8.1 °C 1005.0 hPa SSE 9.7 km/h 19.3 km/h 85 % 0.0 mm 0 W/m2
00:50 10.5 °C 8.1 °C 1005.0 hPa South 9.7 km/h 19.3 km/h 85 % 0.0 mm 0 W/m2
00:55 10.4 °C 8.0 °C 1005.0 hPa SSE 16.1 km/h 19.3 km/h 85 % 0.0 mm 0 W/m2
01:00 10.4 °C 7.8 °C 1004.6 hPa SSE 8.0 km/h 20.9 km/h 84 % 0.0 mm 0 W/m2
01:05 10.3 °C 7.9 °C 1004.6 hPa South 9.7 km/h 20.9 km/h 85 % 0.0 mm 0 W/m2
01:10 10.3 °C 7.9 °C 1004.6 hPa SE 24.1 km/h 27.4 km/h 85 % 0.0 mm 0 W/m2
01:15 10.3 °C 7.9 °C 1004.6 hPa South 9.7 km/h 27.4 km/h 85 % 0.0 mm 0 W/m2
01:20 10.3 °C 7.9 °C 1004.3 hPa SSE 14.5 km/h 20.9 km/h 85 % 0.0 mm 0 W/m2
01:25 10.3 °C 7.9 °C 1004.3 hPa SSE 8.0 km/h 20.9 km/h 85 % 0.0 mm 0 W/m2
01:30 10.2 °C 7.8 °C 1003.9 hPa SSE 14.5 km/h 20.9 km/h 85 % 0.0 mm 0 W/m2
01:35 10.2 °C 7.8 °C 1003.9 hPa SE 16.1 km/h 25.7 km/h 85 % 0.0 mm 0 W/m2
01:40 10.2 °C 7.8 °C 1003.6 hPa SSE 19.3 km/h 25.7 km/h 85 % 0.0 mm 0 W/m2
01:45 10.3 °C 7.9 °C 1003.6 hPa SE 14.5 km/h 22.5 km/h 85 % 0.0 mm 0 W/m2
01:50 10.3 °C 7.9 °C 1003.6 hPa SE 11.3 km/h 24.1 km/h 85 % 0.0 mm 0 W/m2
01:55 10.4 °C 8.0 °C 1003.3 hPa South 14.5 km/h 25.7 km/h 85 % 0.0 mm 0 W/m2
02:00 10.6 °C 8.1 °C 1003.3 hPa SSE 16.1 km/h 25.7 km/h 85 % 0.0 mm 0 W/m2
02:05 10.7 °C 8.2 °C 1003.3 hPa South 12.9 km/h 22.5 km/h 85 % 0.0 mm 0 W/m2
02:10 10.8 °C 8.4 °C 1002.9 hPa SSW 14.5 km/h 24.1 km/h 85 % 0.0 mm 0 W/m2
02:15 10.8 °C 8.4 °C 1002.9 hPa South 12.9 km/h 24.1 km/h 85 % 0.0 mm 0 W/m2
02:20 11.0 °C 8.6 °C 1002.9 hPa SSE 11.3 km/h 29.0 km/h 85 % 0.0 mm 0 W/m2
02:25 11.1 °C 8.5 °C 1002.9 hPa SE 16.1 km/h 29.0 km/h 84 % 0.0 mm 0 W/m2
02:30 11.1 °C 8.5 °C 1002.6 hPa SSE 17.7 km/h 32.2 km/h 84 % 0.0 mm 0 W/m2
02:35 11.2 °C 8.4 °C 1002.3 hPa SSE 12.9 km/h 32.2 km/h 83 % 0.0 mm 0 W/m2
02:40 11.3 °C 8.5 °C 1002.3 hPa SSE 11.3 km/h 32.2 km/h 83 % 0.0 mm 0 W/m2
02:45 11.3 °C 8.5 °C 1002.3 hPa South 11.3 km/h 32.2 km/h 83 % 0.0 mm 0 W/m2
02:50 11.3 °C 8.5 °C 1002.3 hPa SSE 20.9 km/h 27.4 km/h 83 % 0.0 mm 0 W/m2
02:55 11.4 °C 8.8 °C 1002.3 hPa South 24.1 km/h 29.0 km/h 84 % 0.0 mm 0 W/m2
03:00 11.4 °C 8.8 °C 1001.9 hPa SSE 20.9 km/h 32.2 km/h 84 % 0.0 mm 0 W/m2
03:05 11.5 °C 8.9 °C 1001.9 hPa SE 11.3 km/h 32.2 km/h 84 % 0.0 mm 0 W/m2
03:10 11.6 °C 8.9 °C 1001.9 hPa SSE 22.5 km/h 30.6 km/h 84 % 0.0 mm 0 W/m2
03:15 11.6 °C 8.9 °C 1001.9 hPa South 24.1 km/h 29.0 km/h 84 % 0.0 mm 0 W/m2
03:20 11.6 °C 9.2 °C 1001.9 hPa South 12.9 km/h 29.0 km/h 85 % 0.0 mm 0 W/m2
03:25 11.7 °C 9.2 °C 1001.9 hPa SSE 17.7 km/h 30.6 km/h 85 % 0.0 mm 0 W/m2
03:30 11.7 °C 9.3 °C 1001.6 hPa South 14.5 km/h 30.6 km/h 85 % 0.0 mm 0 W/m2
03:35 11.8 °C 9.2 °C 1001.6 hPa SSE 16.1 km/h 32.2 km/h 84 % 0.0 mm 0 W/m2
03:40 11.8 °C 9.4 °C 1001.6 hPa South 22.5 km/h 38.6 km/h 85 % 0.0 mm 0 W/m2
03:45 11.9 °C 9.3 °C 1001.6 hPa South 20.9 km/h 38.6 km/h 84 % 0.0 mm 0 W/m2
03:50 11.9 °C 9.3 °C 1001.6 hPa South 16.1 km/h 35.4 km/h 84 % 0.0 mm 0 W/m2
03:55 11.9 °C 9.3 °C 1001.6 hPa SSE 17.7 km/h 35.4 km/h 84 % 0.0 mm 0 W/m2
04:00 12.0 °C 9.2 °C 1001.6 hPa South 20.9 km/h 30.6 km/h 83 % 0.0 mm 0 W/m2
04:05 12.1 °C 9.3 °C 1001.6 hPa SSE 12.9 km/h 38.6 km/h 83 % 0.0 mm 0 W/m2
04:10 12.0 °C 9.2 °C 1001.6 hPa South 24.1 km/h 38.6 km/h 83 % 0.0 mm 0 W/m2
04:20 11.9 °C 9.1 °C 1001.2 hPa South 22.5 km/h 35.4 km/h 83 % 0.0 mm 0 W/m2
04:25 11.9 °C 9.1 °C 1001.2 hPa SSW 29.0 km/h 40.2 km/h 83 % 0.0 mm 0 W/m2
04:30 11.9 °C 9.3 °C 1001.2 hPa South 19.3 km/h 40.2 km/h 84 % 0.0 mm 0 W/m2
04:35 11.9 °C 9.3 °C 1001.2 hPa South 22.5 km/h 38.6 km/h 84 % 0.0 mm 0 W/m2
04:40 11.8 °C 9.2 °C 1001.2 hPa SSW 25.7 km/h 41.8 km/h 84 % 0.0 mm 0 W/m2
04:45 11.8 °C 9.2 °C 1000.9 hPa SSE 16.1 km/h 41.8 km/h 84 % 0.0 mm 0 W/m2
04:50 11.7 °C 9.3 °C 1000.9 hPa South 14.5 km/h 40.2 km/h 85 % 0.0 mm 0 W/m2
04:55 11.6 °C 9.3 °C 1000.9 hPa SSW 20.9 km/h 40.2 km/h 86 % 0.0 mm 0 W/m2
05:00 11.4 °C 9.4 °C 1000.9 hPa South 14.5 km/h 33.8 km/h 87 % 0.0 mm 0 W/m2
05:05 11.3 °C 9.4 °C 1000.6 hPa South 27.4 km/h 37.0 km/h 88 % 0.0 mm 0 W/m2
05:10 11.2 °C 9.4 °C 1000.6 hPa SE 19.3 km/h 37.0 km/h 89 % 0.0 mm 0 W/m2
05:15 11.0 °C 9.4 °C 1000.6 hPa SSW 24.1 km/h 35.4 km/h 90 % 0.0 mm 0 W/m2
05:20 10.9 °C 9.3 °C 1000.2 hPa SSE 27.4 km/h 35.4 km/h 90 % 0.3 mm 0 W/m2
05:25 10.8 °C 9.4 °C 999.9 hPa SSE 19.3 km/h 33.8 km/h 91 % 0.5 mm 0 W/m2
05:30 10.7 °C 9.3 °C 999.9 hPa South 25.7 km/h 33.8 km/h 91 % 0.5 mm 0 W/m2
05:35 10.7 °C 9.4 °C 999.5 hPa South 12.9 km/h 35.4 km/h 92 % 0.5 mm 0 W/m2
05:40 10.6 °C 9.3 °C 999.2 hPa South 16.1 km/h 35.4 km/h 92 % 0.5 mm 0 W/m2
05:45 10.6 °C 9.5 °C 999.5 hPa South 20.9 km/h 33.8 km/h 93 % 0.8 mm 0 W/m2
05:50 10.6 °C 9.5 °C 999.5 hPa SSW 12.9 km/h 33.8 km/h 93 % 0.8 mm 0 W/m2
05:55 10.7 °C 9.6 °C 999.9 hPa South 25.7 km/h 33.8 km/h 93 % 0.8 mm 0 W/m2
06:00 10.7 °C 9.6 °C 999.9 hPa SE 14.5 km/h 30.6 km/h 93 % 0.8 mm 0 W/m2
06:05 10.7 °C 9.6 °C 999.9 hPa South 14.5 km/h 35.4 km/h 93 % 0.8 mm 0 W/m2
06:10 10.7 °C 9.6 °C 999.5 hPa South 24.1 km/h 35.4 km/h 93 % 0.8 mm 0 W/m2
06:15 10.7 °C 9.6 °C 999.9 hPa SSE 9.7 km/h 29.0 km/h 93 % 0.5 mm 0 W/m2
06:20 10.7 °C 9.6 °C 1000.2 hPa South 20.9 km/h 29.0 km/h 93 % 0.8 mm 0 W/m2
06:25 10.7 °C 9.6 °C 1000.2 hPa SSW 24.1 km/h 29.0 km/h 93 % 0.8 mm 0 W/m2
06:30 10.6 °C 9.5 °C 999.5 hPa SSW 22.5 km/h 41.8 km/h 93 % 0.8 mm 0 W/m2
06:35 10.6 °C 9.6 °C 999.2 hPa South 11.3 km/h 41.8 km/h 94 % 1.0 mm 0 W/m2
06:40 10.5 °C 9.6 °C 999.2 hPa South 12.9 km/h 38.6 km/h 94 % 1.5 mm 0 W/m2
06:45 10.5 °C 9.6 °C 999.2 hPa SSW 17.7 km/h 33.8 km/h 94 % 1.3 mm 0 W/m2
06:50 10.5 °C 9.6 °C 999.2 hPa South 20.9 km/h 35.4 km/h 94 % 1.5 mm 0 W/m2
06:55 10.5 °C 9.7 °C 998.9 hPa SSE 33.8 km/h 35.4 km/h 95 % 1.5 mm 0 W/m2
07:00 10.5 °C 9.7 °C 998.9 hPa SSW 11.3 km/h 38.6 km/h 95 % 1.5 mm 0 W/m2
07:05 10.5 °C 9.7 °C 998.9 hPa South 25.7 km/h 40.2 km/h 95 % 1.5 mm 0 W/m2
07:10 10.6 °C 9.8 °C 998.9 hPa SSE 20.9 km/h 43.4 km/h 95 % 1.5 mm 0 W/m2
07:15 10.6 °C 9.8 °C 998.5 hPa South 20.9 km/h 43.4 km/h 95 % 1.5 mm 0 W/m2
07:20 10.6 °C 9.8 °C 998.9 hPa South 24.1 km/h 49.9 km/h 95 % 1.5 mm 0 W/m2
07:25 10.6 °C 9.8 °C 998.9 hPa SSE 17.7 km/h 49.9 km/h 95 % 1.3 mm 0 W/m2
07:30 10.6 °C 9.8 °C 998.9 hPa SE 20.9 km/h 46.7 km/h 95 % 1.3 mm 0 W/m2
07:35 10.6 °C 9.7 °C 998.9 hPa SSE 25.7 km/h 46.7 km/h 94 % 0.8 mm 0 W/m2
07:40 10.6 °C 9.7 °C 998.9 hPa SSE 30.6 km/h 40.2 km/h 94 % 0.5 mm 0 W/m2
07:45 10.6 °C 9.7 °C 998.5 hPa SSE 24.1 km/h 37.0 km/h 94 % 0.5 mm 0 W/m2
07:50 10.7 °C 9.7 °C 998.5 hPa SSW 32.2 km/h 41.8 km/h 94 % 0.3 mm 0 W/m2
07:55 10.7 °C 9.8 °C 998.5 hPa South 22.5 km/h 41.8 km/h 94 % 0.3 mm 0 W/m2
08:00 10.8 °C 9.9 °C 998.5 hPa South 25.7 km/h 40.2 km/h 94 % 0.3 mm 0 W/m2
08:05 10.8 °C 9.9 °C 998.5 hPa SSE 9.7 km/h 43.4 km/h 94 % 0.0 mm 0 W/m2
08:10 10.9 °C 9.8 °C 998.5 hPa South 11.3 km/h 43.4 km/h 93 % 0.0 mm 0 W/m2
08:15 10.9 °C 9.9 °C 998.5 hPa South 20.9 km/h 40.2 km/h 93 % 0.0 mm 0 W/m2
08:20 10.9 °C 9.9 °C 998.5 hPa SSW 40.2 km/h 40.2 km/h 93 % 0.0 mm 0 W/m2
08:25 11.0 °C 9.9 °C 998.5 hPa South 29.0 km/h 41.8 km/h 93 % 0.0 mm 0 W/m2
08:30 11.1 °C 10.0 °C 998.5 hPa SSW 27.4 km/h 41.8 km/h 93 % 0.0 mm 0 W/m2
08:35 11.1 °C 10.0 °C 998.5 hPa SSE 29.0 km/h 40.2 km/h 93 % 0.0 mm 0 W/m2
08:40 11.1 °C 10.0 °C 998.2 hPa South 17.7 km/h 46.7 km/h 93 % 0.0 mm 0 W/m2
08:45 11.1 °C 9.8 °C 998.5 hPa South 27.4 km/h 48.3 km/h 92 % 0.0 mm 0 W/m2
08:50 11.1 °C 9.8 °C 998.5 hPa South 32.2 km/h 48.3 km/h 92 % 0.0 mm 0 W/m2
08:55 11.1 °C 9.8 °C 998.5 hPa South 27.4 km/h 45.1 km/h 92 % 0.0 mm 0 W/m2
09:00 11.1 °C 9.7 °C 998.9 hPa SSE 14.5 km/h 49.9 km/h 91 % 0.0 mm 0 W/m2
09:05 11.1 °C 9.7 °C 999.2 hPa South 37.0 km/h 49.9 km/h 91 % 0.0 mm 5 W/m2
09:10 11.0 °C 9.6 °C 999.2 hPa South 14.5 km/h 37.0 km/h 91 % 0.0 mm 5 W/m2
09:15 10.9 °C 9.6 °C 998.9 hPa South 17.7 km/h 35.4 km/h 92 % 0.0 mm 0 W/m2
09:20 10.8 °C 9.6 °C 999.2 hPa South 29.0 km/h 37.0 km/h 92 % 0.3 mm 11 W/m2
09:25 10.7 °C 9.5 °C 999.2 hPa South 14.5 km/h 37.0 km/h 92 % 0.5 mm 18 W/m2
09:30 10.7 °C 9.6 °C 999.2 hPa SSE 11.3 km/h 33.8 km/h 93 % 0.5 mm 14 W/m2
09:35 10.7 °C 9.6 °C 999.2 hPa SSW 22.5 km/h 41.8 km/h 93 % 0.5 mm 11 W/m2
09:40 10.7 °C 9.7 °C 999.2 hPa South 14.5 km/h 41.8 km/h 94 % 0.5 mm 12 W/m2
09:45 10.7 °C 9.8 °C 999.2 hPa South 20.9 km/h 48.3 km/h 94 % 0.5 mm 21 W/m2
09:50 10.7 °C 9.8 °C 999.2 hPa SSW 19.3 km/h 48.3 km/h 94 % 0.5 mm 25 W/m2
09:55 10.7 °C 9.8 °C 999.2 hPa SSW 16.1 km/h 45.1 km/h 94 % 0.5 mm 19 W/m2
10:00 10.7 °C 9.8 °C 998.9 hPa SSW 17.7 km/h 45.1 km/h 94 % 0.5 mm 19 W/m2
10:05 10.7 °C 9.8 °C 998.9 hPa South 35.4 km/h 38.6 km/h 94 % 0.5 mm 18 W/m2
10:10 10.8 °C 9.9 °C 998.9 hPa South 35.4 km/h 48.3 km/h 94 % 0.5 mm 16 W/m2
10:15 10.8 °C 9.9 °C 998.9 hPa South 20.9 km/h 48.3 km/h 94 % 0.5 mm 16 W/m2
10:20 10.8 °C 9.9 °C 998.9 hPa South 24.1 km/h 43.4 km/h 94 % 0.3 mm 18 W/m2
10:25 10.8 °C 9.9 °C 999.2 hPa SSE 20.9 km/h 43.4 km/h 94 % 0.0 mm 18 W/m2
10:30 10.8 °C 9.9 °C 998.9 hPa SSW 35.4 km/h 37.0 km/h 94 % 0.0 mm 16 W/m2
10:35 10.8 °C 9.9 °C 999.2 hPa South 20.9 km/h 37.0 km/h 94 % 0.0 mm 26 W/m2
10:40 10.8 °C 9.9 °C 999.2 hPa SSE 19.3 km/h 38.6 km/h 94 % 0.0 mm 30 W/m2
10:45 10.8 °C 9.9 °C 999.2 hPa SSE 16.1 km/h 38.6 km/h 94 % 0.0 mm 42 W/m2
10:50 10.8 °C 9.9 °C 999.2 hPa South 12.9 km/h 37.0 km/h 94 % 0.0 mm 44 W/m2
10:55 10.8 °C 9.9 °C 998.9 hPa South 11.3 km/h 38.6 km/h 94 % 0.0 mm 54 W/m2
11:00 10.7 °C 9.8 °C 998.9 hPa South 14.5 km/h 38.6 km/h 94 % 0.0 mm 56 W/m2
11:05 10.8 °C 10.0 °C 998.5 hPa South 14.5 km/h 33.8 km/h 95 % 0.0 mm 65 W/m2
11:10 10.8 °C 9.9 °C 998.5 hPa SSE 22.5 km/h 32.2 km/h 94 % 0.0 mm 39 W/m2
11:15 10.8 °C 9.9 °C 998.5 hPa SSE 22.5 km/h 37.0 km/h 94 % 0.0 mm 60 W/m2
11:20 10.8 °C 9.9 °C 998.2 hPa SSW 12.9 km/h 37.0 km/h 94 % 0.0 mm 69 W/m2
11:25 10.9 °C 10.0 °C 998.2 hPa SSE 24.1 km/h 35.4 km/h 94 % 0.0 mm 83 W/m2
11:30 10.9 °C 10.0 °C 997.9 hPa SSE 24.1 km/h 35.4 km/h 94 % 0.0 mm 98 W/m2
11:35 11.1 °C 10.1 °C 997.9 hPa SSE 19.3 km/h 30.6 km/h 94 % 0.0 mm 121 W/m2
11:40 11.2 °C 10.2 °C 997.9 hPa South 25.7 km/h 35.4 km/h 94 % 0.0 mm 113 W/m2
11:45 11.3 °C 10.3 °C 998.2 hPa SSW 22.5 km/h 35.4 km/h 94 % 0.0 mm 139 W/m2
11:50 11.4 °C 10.3 °C 998.2 hPa South 22.5 km/h 35.4 km/h 93 % 0.0 mm 155 W/m2
11:55 11.5 °C 10.4 °C 998.5 hPa SSW 30.6 km/h 35.4 km/h 93 % 0.0 mm 132 W/m2
12:00 11.6 °C 10.5 °C 998.5 hPa South 12.9 km/h 35.4 km/h 93 % 0.0 mm 139 W/m2
12:05 11.7 °C 10.6 °C 998.5 hPa SSE 19.3 km/h 30.6 km/h 93 % 0.0 mm 137 W/m2
12:15 11.7 °C 10.6 °C 998.5 hPa SSW 29.0 km/h 38.6 km/h 93 % 0.0 mm 186 W/m2
12:20 11.7 °C 10.6 °C 998.5 hPa SSE 19.3 km/h 38.6 km/h 93 % 0.0 mm 120 W/m2
12:25 11.8 °C 10.7 °C 998.5 hPa South 11.3 km/h 32.2 km/h 93 % 0.0 mm 67 W/m2
12:30 11.7 °C 10.6 °C 998.5 hPa SSW 27.4 km/h 32.2 km/h 93 % 0.0 mm 63 W/m2
12:40 11.6 °C 10.5 °C 998.5 hPa South 22.5 km/h 33.8 km/h 93 % 0.0 mm 47 W/m2
12:45 11.6 °C 10.5 °C 998.5 hPa SSE 12.9 km/h 33.8 km/h 93 % 0.0 mm 32 W/m2
12:50 11.6 °C 10.5 °C 998.5 hPa SSW 25.7 km/h 38.6 km/h 93 % 0.0 mm 30 W/m2
12:55 11.5 °C 10.4 °C 998.9 hPa SSW 16.1 km/h 40.2 km/h 93 % 0.0 mm 30 W/m2
13:00 11.3 °C 10.2 °C 998.9 hPa SW 11.3 km/h 40.2 km/h 93 % 0.0 mm 44 W/m2
13:05 11.2 °C 10.1 °C 998.9 hPa SSW 29.0 km/h 41.8 km/h 93 % 0.0 mm 49 W/m2
13:10 11.1 °C 10.0 °C 998.9 hPa SSW 14.5 km/h 41.8 km/h 93 % 0.3 mm 83 W/m2
13:15 10.9 °C 9.9 °C 998.9 hPa SSE 11.3 km/h 37.0 km/h 93 % 0.5 mm 109 W/m2
13:20 10.8 °C 9.7 °C 998.5 hPa South 8.0 km/h 35.4 km/h 93 % 0.5 mm 98 W/m2
13:25 10.8 °C 9.7 °C 998.2 hPa South 9.7 km/h 32.2 km/h 93 % 0.5 mm 109 W/m2
13:30 10.9 °C 9.6 °C 997.9 hPa South 16.1 km/h 32.2 km/h 92 % 0.5 mm 77 W/m2
13:40 10.9 °C 9.5 °C 997.9 hPa SSE 16.1 km/h 27.4 km/h 91 % 0.5 mm 93 W/m2
13:45 10.9 °C 9.4 °C 997.9 hPa SSE 6.4 km/h 25.7 km/h 90 % 0.5 mm 88 W/m2
13:50 10.9 °C 9.4 °C 997.9 hPa South 20.9 km/h 25.7 km/h 90 % 0.5 mm 51 W/m2
13:55 10.9 °C 9.4 °C 997.9 hPa South 14.5 km/h 25.7 km/h 90 % 0.5 mm 56 W/m2
14:00 11.0 °C 9.3 °C 997.2 hPa South 9.7 km/h 25.7 km/h 89 % 0.5 mm 102 W/m2
14:05 11.1 °C 9.1 °C 997.2 hPa South 20.9 km/h 25.7 km/h 88 % 0.5 mm 86 W/m2
14:10 11.1 °C 9.2 °C 997.2 hPa SSE 17.7 km/h 20.9 km/h 88 % 0.3 mm 46 W/m2
14:15 11.1 °C 9.0 °C 997.2 hPa SSW 14.5 km/h 24.1 km/h 87 % 0.0 mm 58 W/m2
14:20 11.1 °C 9.0 °C 997.5 hPa SSW 11.3 km/h 25.7 km/h 87 % 0.0 mm 60 W/m2
14:25 11.1 °C 9.0 °C 997.5 hPa SSW 14.5 km/h 25.7 km/h 87 % 0.0 mm 40 W/m2
14:30 11.0 °C 8.9 °C 997.5 hPa SSW 17.7 km/h 30.6 km/h 87 % 0.0 mm 54 W/m2
14:35 10.9 °C 9.0 °C 997.9 hPa SSW 20.9 km/h 37.0 km/h 88 % 0.0 mm 46 W/m2
14:45 10.8 °C 8.9 °C 998.2 hPa SSW 19.3 km/h 37.0 km/h 88 % 0.0 mm 25 W/m2
14:50 10.8 °C 8.9 °C 997.9 hPa SSW 16.1 km/h 37.0 km/h 88 % 0.0 mm 18 W/m2
14:55 10.7 °C 8.8 °C 997.9 hPa SSE 9.7 km/h 33.8 km/h 88 % 0.0 mm 14 W/m2
15:00 10.6 °C 8.9 °C 997.9 hPa SSW 16.1 km/h 33.8 km/h 89 % 0.0 mm 11 W/m2
15:05 10.5 °C 8.9 °C 997.9 hPa SSW 24.1 km/h 33.8 km/h 90 % 0.0 mm 14 W/m2
15:10 10.4 °C 9.0 °C 997.9 hPa SSW 20.9 km/h 32.2 km/h 91 % 0.0 mm 21 W/m2
15:15 10.4 °C 9.0 °C 997.9 hPa South 16.1 km/h 32.2 km/h 91 % 0.0 mm 16 W/m2
15:20 10.4 °C 9.2 °C 997.9 hPa South 17.7 km/h 30.6 km/h 92 % 0.0 mm 14 W/m2
15:25 10.4 °C 9.1 °C 997.9 hPa South 19.3 km/h 33.8 km/h 92 % 0.0 mm 16 W/m2
15:30 10.3 °C 9.0 °C 997.9 hPa SSW 19.3 km/h 33.8 km/h 92 % 0.0 mm 14 W/m2
15:35 10.3 °C 9.2 °C 997.9 hPa South 20.9 km/h 37.0 km/h 93 % 0.0 mm 12 W/m2
15:40 10.2 °C 9.1 °C 998.2 hPa SSW 27.4 km/h 41.8 km/h 93 % 0.0 mm 25 W/m2
15:45 10.1 °C 9.0 °C 997.9 hPa SSE 29.0 km/h 41.8 km/h 93 % 0.0 mm 30 W/m2
15:50 10.0 °C 8.9 °C 998.2 hPa SSE 22.5 km/h 35.4 km/h 93 % 0.0 mm 12 W/m2
15:55 9.9 °C 8.9 °C 998.2 hPa SSE 9.7 km/h 35.4 km/h 93 % 0.3 mm 12 W/m2
16:00 9.8 °C 8.9 °C 998.2 hPa SSE 9.7 km/h 35.4 km/h 94 % 0.3 mm 16 W/m2
16:05 9.8 °C 8.9 °C 998.2 hPa South 24.1 km/h 40.2 km/h 94 % 0.5 mm 14 W/m2
16:10 9.7 °C 8.8 °C 998.2 hPa SSW 12.9 km/h 40.2 km/h 94 % 0.5 mm 30 W/m2
16:15 9.7 °C 9.0 °C 998.2 hPa South 16.1 km/h 32.2 km/h 95 % 0.5 mm 37 W/m2
16:20 9.7 °C 9.0 °C 998.5 hPa South 22.5 km/h 32.2 km/h 95 % 0.5 mm 33 W/m2
16:25 9.7 °C 9.0 °C 998.5 hPa South 14.5 km/h 43.4 km/h 95 % 0.5 mm 30 W/m2
16:30 9.8 °C 9.0 °C 998.5 hPa SSW 32.2 km/h 43.4 km/h 95 % 0.5 mm 11 W/m2
16:35 9.8 °C 9.1 °C 998.5 hPa SSE 19.3 km/h 41.8 km/h 95 % 0.5 mm 18 W/m2
16:40 9.8 °C 9.1 °C 998.5 hPa South 17.7 km/h 41.8 km/h 95 % 0.5 mm 14 W/m2
16:45 9.8 °C 9.1 °C 998.2 hPa South 24.1 km/h 38.6 km/h 95 % 0.5 mm 14 W/m2
16:50 9.8 °C 9.1 °C 998.2 hPa SSW 14.5 km/h 38.6 km/h 95 % 0.8 mm 40 W/m2
16:55 9.9 °C 9.2 °C 998.2 hPa SSW 22.5 km/h 30.6 km/h 95 % 0.5 mm 25 W/m2
17:00 9.9 °C 9.2 °C 998.5 hPa South 30.6 km/h 35.4 km/h 95 % 0.5 mm 19 W/m2
17:05 10.0 °C 9.2 °C 998.5 hPa SSE 14.5 km/h 35.4 km/h 95 % 0.5 mm 26 W/m2
17:10 10.0 °C 9.2 °C 998.5 hPa SSW 19.3 km/h 33.8 km/h 95 % 0.5 mm 42 W/m2
17:15 10.0 °C 9.2 °C 998.5 hPa South 11.3 km/h 33.8 km/h 95 % 0.5 mm 46 W/m2
17:20 10.0 °C 9.2 °C 998.5 hPa South 19.3 km/h 33.8 km/h 95 % 0.5 mm 37 W/m2
17:25 10.1 °C 9.3 °C 998.5 hPa SSW 22.5 km/h 33.8 km/h 95 % 0.5 mm 40 W/m2
17:30 10.1 °C 9.3 °C 998.9 hPa South 8.0 km/h 29.0 km/h 95 % 0.5 mm 28 W/m2
17:40 10.1 °C 9.3 °C 999.2 hPa South 19.3 km/h 27.4 km/h 95 % 0.5 mm 5 W/m2
17:45 10.1 °C 9.3 °C 999.2 hPa West 9.7 km/h 27.4 km/h 95 % 0.3 mm 0 W/m2
17:50 10.1 °C 9.1 °C 999.2 hPa South 9.7 km/h 24.1 km/h 94 % 0.0 mm 0 W/m2
17:55 10.1 °C 9.1 °C 999.2 hPa SW 11.3 km/h 24.1 km/h 94 % 0.0 mm 0 W/m2
18:00 10.1 °C 9.1 °C 999.2 hPa SSW 22.5 km/h 27.4 km/h 94 % 0.0 mm 0 W/m2
18:05 10.2 °C 9.2 °C 999.2 hPa WSW 12.9 km/h 29.0 km/h 94 % 0.3 mm 0 W/m2
18:10 10.1 °C 9.2 °C 999.5 hPa WSW 12.9 km/h 29.0 km/h 94 % 0.3 mm 0 W/m2
18:15 10.1 °C 9.1 °C 999.5 hPa SW 8.0 km/h 25.7 km/h 94 % 0.3 mm 0 W/m2
18:20 10.0 °C 9.1 °C 999.5 hPa South 17.7 km/h 25.7 km/h 94 % 0.3 mm 0 W/m2
18:25 9.8 °C 8.8 °C 999.9 hPa SW 12.9 km/h 25.7 km/h 93 % 0.3 mm 0 W/m2
18:30 9.8 °C 8.7 °C 999.9 hPa SSW 6.4 km/h 27.4 km/h 93 % 0.3 mm 0 W/m2
18:35 9.7 °C 8.6 °C 999.9 hPa WSW 12.9 km/h 27.4 km/h 93 % 0.3 mm 0 W/m2
18:40 9.6 °C 8.4 °C 999.9 hPa WSW 8.0 km/h 17.7 km/h 92 % 0.3 mm 0 W/m2
18:45 9.6 °C 8.3 °C 1000.2 hPa NW 3.2 km/h 20.9 km/h 92 % 0.3 mm 0 W/m2
18:50 9.6 °C 8.3 °C 1000.6 hPa SSW 8.0 km/h 20.9 km/h 92 % 0.3 mm 0 W/m2
18:55 9.7 °C 8.4 °C 1000.6 hPa SW 1.6 km/h 20.9 km/h 92 % 0.3 mm 0 W/m2
19:00 9.7 °C 8.4 °C 1000.6 hPa WNW 12.9 km/h 20.9 km/h 92 % 0.3 mm 0 W/m2
19:05 9.8 °C 8.5 °C 1000.6 hPa SW 3.2 km/h 20.9 km/h 92 % 0.0 mm 0 W/m2
19:10 9.9 °C 8.6 °C 1000.6 hPa SW 14.5 km/h 20.9 km/h 92 % 0.0 mm 0 W/m2
19:15 9.9 °C 8.5 °C 1000.6 hPa SW 8.0 km/h 20.9 km/h 91 % 0.0 mm 0 W/m2
19:20 10.0 °C 8.6 °C 1000.6 hPa SW 6.4 km/h 20.9 km/h 91 % 0.0 mm 0 W/m2
19:25 10.0 °C 8.6 °C 1000.6 hPa SW 9.7 km/h 19.3 km/h 91 % 0.0 mm 0 W/m2
19:30 10.1 °C 8.7 °C 1000.6 hPa SSW 1.6 km/h 19.3 km/h 91 % 0.0 mm 0 W/m2
19:35 10.1 °C 8.5 °C 1000.6 hPa SSW 4.8 km/h 17.7 km/h 90 % 0.0 mm 0 W/m2
19:40 10.2 °C 8.7 °C 1000.9 hPa SSW 9.7 km/h 24.1 km/h 90 % 0.0 mm 0 W/m2
19:45 10.3 °C 8.7 °C 1000.9 hPa SSW 8.0 km/h 24.1 km/h 90 % 0.0 mm 0 W/m2
19:50 10.2 °C 8.5 °C 1000.6 hPa SSW 9.7 km/h 24.1 km/h 89 % 0.0 mm 0 W/m2
19:55 10.2 °C 8.6 °C 1000.9 hPa SSW 16.1 km/h 24.1 km/h 90 % 0.0 mm 0 W/m2
20:00 10.2 °C 8.6 °C 1000.9 hPa South 12.9 km/h 24.1 km/h 90 % 0.0 mm 0 W/m2
20:05 10.2 °C 8.6 °C 1000.6 hPa SW 16.1 km/h 24.1 km/h 90 % 0.0 mm 0 W/m2
20:10 10.2 °C 8.6 °C 1000.9 hPa WSW 8.0 km/h 27.4 km/h 90 % 0.0 mm 0 W/m2
20:15 10.1 °C 8.5 °C 1000.9 hPa SW 6.4 km/h 27.4 km/h 90 % 0.0 mm 0 W/m2
20:20 10.1 °C 8.5 °C 1001.2 hPa SSW 8.0 km/h 27.4 km/h 90 % 0.0 mm 0 W/m2
20:25 10.2 °C 8.6 °C 1001.2 hPa SSW 11.3 km/h 24.1 km/h 90 % 0.0 mm 0 W/m2
20:30 10.1 °C 8.5 °C 1000.9 hPa WSW 12.9 km/h 24.1 km/h 90 % 0.0 mm 0 W/m2
20:35 10.1 °C 8.5 °C 1001.2 hPa WSW 9.7 km/h 20.9 km/h 90 % 0.0 mm 0 W/m2
20:40 9.9 °C 8.4 °C 1000.9 hPa SW 12.9 km/h 20.9 km/h 90 % 0.0 mm 0 W/m2
20:45 9.8 °C 8.4 °C 1000.9 hPa WSW 12.9 km/h 20.9 km/h 91 % 0.0 mm 0 W/m2
20:50 9.8 °C 8.4 °C 1000.9 hPa SSW 9.7 km/h 20.9 km/h 91 % 0.0 mm 0 W/m2
20:55 9.7 °C 8.3 °C 1000.9 hPa WSW 19.3 km/h 20.9 km/h 91 % 0.0 mm 0 W/m2
21:00 9.6 °C 8.2 °C 1000.9 hPa SW 9.7 km/h 25.7 km/h 91 % 0.0 mm 0 W/m2
21:05 9.5 °C 8.1 °C 1000.9 hPa West 16.1 km/h 25.7 km/h 91 % 0.0 mm 0 W/m2
21:10 9.5 °C 8.1 °C 1001.2 hPa SW 9.7 km/h 24.1 km/h 91 % 0.0 mm 0 W/m2
21:15 9.4 °C 7.9 °C 1001.2 hPa WSW 3.2 km/h 17.7 km/h 90 % 0.0 mm 0 W/m2
21:20 9.4 °C 7.9 °C 1001.2 hPa SSW 4.8 km/h 17.7 km/h 90 % 0.0 mm 0 W/m2
21:25 9.3 °C 7.9 °C 1001.2 hPa SW 4.8 km/h 17.7 km/h 91 % 0.0 mm 0 W/m2
21:30 9.4 °C 8.0 °C 1001.2 hPa WSW 17.7 km/h 20.9 km/h 91 % 0.0 mm 0 W/m2
21:35 9.6 °C 8.2 °C 1001.6 hPa SW 17.7 km/h 24.1 km/h 91 % 0.0 mm 0 W/m2
21:40 9.6 °C 8.2 °C 1001.6 hPa WSW 29.0 km/h 30.6 km/h 91 % 0.0 mm 0 W/m2
21:45 9.7 °C 8.1 °C 1001.6 hPa West 8.0 km/h 30.6 km/h 90 % 0.0 mm 0 W/m2
21:50 9.6 °C 8.1 °C 1001.9 hPa SW 4.8 km/h 29.0 km/h 90 % 0.0 mm 0 W/m2
21:55 9.6 °C 8.1 °C 1001.9 hPa WNW 8.0 km/h 20.9 km/h 90 % 0.0 mm 0 W/m2
22:00 9.5 °C 7.9 °C 1001.9 hPa Calm   24.1 km/h 90 % 0.0 mm 0 W/m2
22:05 9.4 °C 7.8 °C 1001.9 hPa SSW 6.4 km/h 24.1 km/h 90 % 0.0 mm 0 W/m2
22:10 9.3 °C 7.9 °C 1001.9 hPa WSW 12.9 km/h 19.3 km/h 91 % 0.0 mm 0 W/m2
22:15 9.4 °C 8.0 °C 1002.3 hPa SW 6.4 km/h 19.3 km/h 91 % 0.0 mm 0 W/m2
22:20 9.4 °C 8.0 °C 1001.9 hPa WSW 8.0 km/h 20.9 km/h 91 % 0.0 mm 0 W/m2
22:25 9.4 °C 8.0 °C 1002.3 hPa West 6.4 km/h 20.9 km/h 91 % 0.0 mm 0 W/m2
22:30 9.4 °C 8.0 °C 1002.6 hPa WNW 8.0 km/h 19.3 km/h 91 % 0.0 mm 0 W/m2
22:35 9.3 °C 7.7 °C 1002.6 hPa WNW 6.4 km/h 19.3 km/h 90 % 0.0 mm 0 W/m2
22:40 9.2 °C 7.6 °C 1002.6 hPa West 12.9 km/h 17.7 km/h 90 % 0.0 mm 0 W/m2
22:45 9.1 °C 7.5 °C 1002.6 hPa West 8.0 km/h 16.1 km/h 90 % 0.0 mm 0 W/m2
22:50 9.0 °C 7.4 °C 1002.6 hPa WNW 6.4 km/h 16.1 km/h 90 % 0.0 mm 0 W/m2
22:55 9.0 °C 7.4 °C 1002.6 hPa West 19.3 km/h 22.5 km/h 90 % 0.0 mm 0 W/m2
23:00 9.2 °C 7.6 °C 1002.6 hPa West 17.7 km/h 25.7 km/h 90 % 0.0 mm 0 W/m2
23:05 9.2 °C 7.4 °C 1002.9 hPa NW 8.0 km/h 32.2 km/h 89 % 0.0 mm 0 W/m2
23:10 9.2 °C 7.3 °C 1002.6 hPa WNW 24.1 km/h 32.2 km/h 88 % 0.0 mm 0 W/m2
23:15 8.9 °C 6.8 °C 1002.6 hPa West 9.7 km/h 27.4 km/h 87 % 0.0 mm 0 W/m2
23:20 8.7 °C 6.8 °C 1002.6 hPa West 6.4 km/h 27.4 km/h 88 % 0.0 mm 0 W/m2
23:25 8.7 °C 7.0 °C 1002.6 hPa WSW 6.4 km/h 22.5 km/h 89 % 0.0 mm 0 W/m2
23:30 8.6 °C 7.1 °C 1002.6 hPa West 4.8 km/h 20.9 km/h 90 % 0.0 mm 0 W/m2
23:35 8.7 °C 7.2 °C 1002.6 hPa WSW 17.7 km/h 25.7 km/h 90 % 0.3 mm 0 W/m2
23:40 8.9 °C 7.5 °C 1002.6 hPa SW 6.4 km/h 33.8 km/h 91 % 0.3 mm 0 W/m2
23:45 8.8 °C 7.3 °C 1002.6 hPa WSW 4.8 km/h 33.8 km/h 90 % 0.3 mm 0 W/m2
23:50 8.8 °C 7.4 °C 1002.9 hPa WSW 9.7 km/h 27.4 km/h 91 % 0.3 mm 0 W/m2
23:55 8.9 °C 7.5 °C 1002.9 hPa SW 9.7 km/h 27.4 km/h 91 % 0.3 mm 0 W/m2
Avec l'autorisation de Weather Underground - 1.75 mb